Nenana, AK

1:50 PM AKST en Noviembre 16, 2018 (GMT -0900)
Nenana Municipal

Tiempo Historia de PANN - Noviembre, 2018

Change the Weather History Date:

Jueves, Noviembre 8, 2018

  Actual Average Record
Temperature  
Temperatura media 29 ° F -  
Temperatura máxima 48 ° F 14 ° F 54 ° F (2002)
Temperatura mínima 10 ° F -1 ° F -18 ° F (2006)
Degree Days  
Grados día de calefacción 36    
Moisture  
Punto de rocío 15 ° F    
Average Humidity 86    
Maximum Humidity 100    
Minimum Humidity 74    
Precipitación  
Precipitación 0.43 pul - - ()
Presión al nivel del mar  
Presión al nivel del mar 30.12 pul    
Viento  
Velocidad del viento 3 mph (Norte)    
Velocidad máxima del viento 18 mph    
Max Gust Speed -    
Visibilidad 10 Millas    
Eventos Lluvia    
Averages and records for this station are not official NWS values.
T = Trace of Precipitation, MM = Missing Value Source: NWS Daily Summary

Daily Weather History Graph

Daily Weather History Graph

Search for Another Location

Airport or City:

Astronomía

Nov. 08, 2018 Salida Puesta
Hora real 9:06 AM AKST 4:12 PM AKST
Crepúsculo civil 8:08 AM AKST 5:10 PM AKST
Crepúsculo náutico 7:08 AM AKST 6:10 PM AKST
Crepúsculo astronómico 6:12 AM AKST 7:06 PM AKST
Luna 10:09 AM AKST (11/8) 5:14 PM AKST (11/8)
Horas de luz 9h 02m
Horas de luz
7h 06m
Luna nueva, 2% of the Moon is Illuminated
Nov 8
Luna nueva
Nov 15
Cuarto creciente
Nov 22
Luna llena
Nov 29
Cuarto menguante
Dic 6
Nueva

Hourly Weather History & Observations

Hora (AKST) Temp. Vientos helados Punto de rocío Humedad Presión Visibilidad Wind Dir Velocidad del viento Velocidad de ráfagas Precip Eventos Condiciones
12:53 AM 14.0 ° F - 9.0 ° F 80% 30.12 pul 10.0 mi Sin viento Sin viento - N/A   Nublado
1:53 AM 14.0 ° F 6.5 ° F 9.0 ° F 80% 30.10 pul 10.0 mi Variable 4.6 mph - N/A   Muy nublado
2:53 AM 14.0 ° F 8.2 ° F 9.0 ° F 80% 30.10 pul 10.0 mi ONO 3.5 mph - N/A   Muy nublado
3:53 AM 14.0 ° F - 10.0 ° F 84% 30.09 pul 10.0 mi Sin viento Sin viento - N/A   Muy nublado
4:53 AM 12.9 ° F - 10.0 ° F 88% 30.09 pul 10.0 mi Sin viento Sin viento - N/A   Nublado
5:53 AM 14.0 ° F 8.2 ° F 10.0 ° F 84% 30.10 pul 10.0 mi Oeste 3.5 mph - N/A   Nublado
6:53 AM 14.0 ° F - 10.0 ° F 84% 30.10 pul 10.0 mi Sin viento Sin viento - N/A   Nublado
7:53 AM 14.0 ° F - 10.0 ° F 84% 30.09 pul 10.0 mi Sin viento Sin viento - N/A   Nublado
8:53 AM 14.0 ° F - 10.0 ° F 84% 30.10 pul 10.0 mi Sin viento Sin viento - N/A   Nublado
9:53 AM 14.0 ° F - 10.0 ° F 84% 30.10 pul 10.0 mi Sin viento Sin viento - N/A   Nublado
10:53 AM 14.0 ° F 8.2 ° F 10.0 ° F 84% 30.10 pul 10.0 mi Variable 3.5 mph - N/A   Nublado
11:53 AM 14.0 ° F - 10.0 ° F 84% 30.10 pul 10.0 mi Sin viento Sin viento - N/A   Nublado
12:53 PM 16.0 ° F - 10.9 ° F 81% 30.11 pul 10.0 mi Sin viento Sin viento - N/A   Nublado
1:53 PM 17.1 ° F - 12.0 ° F 81% 30.10 pul 10.0 mi Sin viento Sin viento - N/A   Nublado
2:53 PM 18.0 ° F - 10.9 ° F 74% 30.10 pul 10.0 mi Sin viento Sin viento - N/A   Nublado
3:53 PM 17.1 ° F - 10.9 ° F 77% 30.10 pul 10.0 mi Sin viento Sin viento - N/A   Nublado
4:53 PM 14.0 ° F - 10.0 ° F 84% 30.10 pul 10.0 mi Sin viento Sin viento - N/A   Muy nublado
5:53 PM 12.0 ° F - 8.1 ° F 84% 30.10 pul 10.0 mi Sin viento Sin viento - N/A   Muy nublado
6:53 PM 10.9 ° F - 8.1 ° F 88% 30.11 pul 10.0 mi Sin viento Sin viento - N/A   Nublado
7:53 PM 14.0 ° F - 10.9 ° F 88% 30.12 pul 10.0 mi Sin viento Sin viento - N/A   Nublado
8:53 PM 15.1 ° F - 12.0 ° F 88% 30.12 pul 10.0 mi Sin viento Sin viento - N/A   Nublado
9:53 PM 16.0 ° F - 12.9 ° F 88% 30.12 pul 10.0 mi Sin viento Sin viento - N/A   Nublado
10:53 PM 17.1 ° F 10.0 ° F 12.9 ° F 84% 30.12 pul 10.0 mi Este 4.6 mph - N/A   Nublado
11:53 PM 17.1 ° F 8.7 ° F 12.9 ° F 84% 30.12 pul 10.0 mi Este 5.8 mph - N/A   Nublado